Regional Weather Roundup
Issued by NWS

Home | Current Version | Previous Version | Text Only | Print | Product List | Glossary Off
Versions: 1 2 3 4 5 6 7 8 9 10 11 12 13 14 15 16 17 18 19 20 21 22 23 24 25 26 27 28 29 30 31 32 33 34 35 36 37 38 39 40 41 42 43 44 45 46 47 48 49 50

000
ASUS43 KDTX 191001
RWRMI
MICHIGAN HOURLY REGIONAL WEATHER ROUNDUP
NATIONAL WEATHER SERVICE DETROIT/PONTIAC MI
600 AM EDT TUE SEP 19 2017

NOTE: "FAIR" INDICATES FEW OR NO CLOUDS BELOW 12,000 FEET WITH NO
SIGNIFICANT WEATHER AND/OR OBSTRUCTION TO VISIBILITY.

MIZ047>049-052>055-059>063-066>070-074>076-081>083-191100-
SOUTHEAST LOWER MICHIGAN

CITY           SKY/WX    TMP DP  RH WIND       PRES   REMARKS
ADRIAN         CLOUDY    64  60  87 E8        30.00F
ALMA           CLOUDY    51  49  94 CALM      30.03S
ANN ARBOR      CLOUDY    63  59  87 N5        29.99F
BAD AXE        CLOUDY    51  49  95 CALM      30.06R
CARO           MOCLDY    53  51  93 CALM      30.03S
DETROIT CITY   LGT RAIN  63  61  93 N3        30.00S
DETROIT        CLOUDY    64  61  90 N7        30.00F
FLINT          MOCLDY    58  54  86 NE6       30.02F
GROSSE ILE     CLOUDY    64  63  94 CALM      29.99S
HILLSDALE      FOG       63  61  94 E6        29.98F VSB 1
HOWELL         CLOUDY    57  54  89 CALM      30.00F

CITY           SKY/WX    TMP DP  RH WIND       PRES   REMARKS
JACKSON        CLOUDY    64  60  87 E7        29.99F FOG
LAMBERTVILLE   CLOUDY    65  63  91 CALM      29.98F
LANSING        CLOUDY    59  53  80 CALM      30.02S
LAPEER         CLOUDY    59  56  91 N3        30.03S
MASON          CLOUDY    60  56  86 CALM      30.01S
MONROE         CLOUDY    65  62  91 CALM      29.99S
MT. CLEMENS    CLOUDY    63  63 100 N5        29.99S
PONTIAC        CLOUDY    61  59  93 NE5       30.00F
PORT HOPE        N/A     64  58  80 NE7       30.04R
PORT HURON     CLOUDY    64  63  94 CALM      30.01S
TRI CITIES     PTCLDY    54  54 100 E5        30.04F
MIDLAND        FAIR      51  51 100 CALM      30.04R
TROY           CLOUDY    64  60  87 NE5       30.03S
SAGINAW HB     MOCLDY    52  50  93 NE3       30.03F
$$
MIZ043>046-050>051-056>058-064>065-071>073-077>080-191100-
SOUTHWEST LOWER MICHIGAN

CITY           SKY/WX    TMP DP  RH WIND       PRES   REMARKS
BATTLE CREEK   CLOUDY    66  64  93 E6        29.98F FOG
BENTON HARBOR  LGT RAIN  65  63  93 E5        29.95S FOG
BIG RAPIDS     MOCLDY    55  52  92 CALM      30.03R
COLDWATER      CLOUDY    65  65 100 E5        29.98S FOG
FREMONT        CLOUDY    59  55  87 E3        30.00S
HOLLAND        CLOUDY    64  61  90 E6        29.98S FOG
GRAND RAPIDS   CLOUDY    60  58  92 E8        29.99F
IONIA          CLOUDY    58  54  85 E5        30.00F
KALAMAZOO      CLOUDY    67  63  87 SE6       29.98S FOG
LUDINGTON      MOCLDY    56  55  93 E5        30.01S
MARSHALL       CLOUDY    64  63  98 CALM      29.98S
MOUNT PLEASANT PTCLDY    55  54  97 N3        30.03S
MUSKEGON       CLOUDY    63  59  87 E6        29.99S
SOUTH HAVEN    LGT RAIN  65  64  96 E6        29.96R
$$
MIZ016>042-191100-
NORTHERN LOWER MICHIGAN

CITY           SKY/WX    TMP DP  RH WIND       PRES   REMARKS
ALPENA         PTCLDY    47  47 100 NW3       30.08R
BEAVER ISLAND  PTCLDY    53  52  98 E3        30.06F
CADILLAC       PTCLDY    55  52  90 NE5       30.06R
CHARLEVOIX     PTCLDY    55  51  87 SE5       30.09F
FRANKFORT      PTCLDY    58  56  91 CALM      30.02F
GAYLORD        CLOUDY    52  47  83 CALM      30.08F
GRAYLING       MOCLDY    45  43  93 CALM      30.09R
HARBOR SPRINGS CLOUDY    53  52  95 CALM      30.08S
HOUGHTON LAKE  CLOUDY    46  45  96 NE3       30.06R
MANISTEE       PTCLDY    56  54  93 E7        30.02S
OSCODA         PTCLDY    48  47  96 CALM      30.05S
PELLSTON       PTCLDY    50  49  96 CALM      30.08S
ROGERS CITY    MOCLDY    51  50  96 CALM      30.08S
TRAVERSE CITY  PTCLDY    56  52  86 CALM      30.04S
$$
MIZ007>008-015-191100-
EASTERN UPPER MICHIGAN

CITY           SKY/WX    TMP DP  RH WIND       PRES   REMARKS
KINROSS        CLOUDY    56  50  80 E3        30.09S
MACKINAC ISLAN CLOUDY    58  53  82 E5        30.07F
NEWBERRY       CLOUDY    52  51  97 NE3       30.08S
S. S. MARIE    CLOUDY    57  49  74 CALM      30.08F
MUNISING         N/A     56  51  84 CALM      30.06F
$$
MIZ004>006-011>014-085-191100-
CENTRAL UPPER MICHIGAN

CITY           SKY/WX    TMP DP  RH WIND       PRES   REMARKS
MANISTIQUE     CLOUDY    53  47  79 CALM      30.06S
ESCANABA       CLOUDY    58  53  84 E6        30.04F
MENOMINEE      CLOUDY    60  57  89 E9        30.02F
SAWYER-GWINN   CLOUDY    55  46  73 SE7       30.06S
$$
MIZ001>003-009>011-084-191100-
WESTERN UPPER MICHIGAN

CITY           SKY/WX    TMP DP  RH WIND       PRES   REMARKS
IRON MOUNTAIN  CLEAR     54  49  83 CALM      30.03S
HOUGHTON       CLOUDY    57  54  89 E8        30.04S
COPPER HARBOR    N/A     57  53  86 VRB6      30.04S
IRONWOOD       CLOUDY    57  51  80 E8        30.01S
$$

ABBREVIATIONS USED IN REMARKS
   TC - TEMPERATURE IN CELSIUS
  WCI - WIND CHILL INDEX
   HX - HEAT INDEX
  VSB - VISIBILITY




USA.gov is the U.S. government's official web portal to all federal, state and local government web resources and services.